When you browse on this site, cookies collect data to enhance your experience and personalize the content and advertising you see.
Visit our Privacy Policy to learn more. By continuing to use the site, you agree to this use of cookies and data.
  • In Österreich
  • Länderverzeichnis
  • Für 7 Tage
  • Wassertemperatur
  • Satellitenkarten
  • Wetterkarte
  • News
  • Widgets
  • user-avatar
    Anmelden

    Stündliche Wetter Rottnest Island

    Heute, 18 April, Donnerstag

    Zeit Temperatur Niederschläge Wind Luftdruck Luftfeuchtigkeit
    00:00 +18°C° 0 mm 4 m/S 764 mmHg 59%
    01:00 +18°C° 0 mm 4 m/S 763 mmHg 56%
    02:00 +18°C° 0 mm 3 m/S 763 mmHg 52%
    03:00 +18°C° 0 mm 2 m/S 762 mmHg 50%
    04:00 +18°C° 0 mm 2 m/S 762 mmHg 49%
    05:00 +18°C° 0 mm 2 m/S 762 mmHg 47%
    06:00 +20°C° 0 mm 1 m/S 762 mmHg 47%
    07:00 +20°C° 0 mm 1 m/S 761 mmHg 46%
    08:00 +20°C° 0 mm 1 m/S 761 mmHg 44%
    09:00 +21°C° 0 mm 2 m/S 761 mmHg 43%
    10:00 +23°C° 0 mm 2 m/S 760 mmHg 42%
    11:00 +24°C° 0 mm 2 m/S 760 mmHg 42%
    12:00 +24°C° 0 mm 3 m/S 760 mmHg 46%
    13:00 +22°C° 0 mm 4 m/S 759 mmHg 51%
    14:00 +22°C° 0 mm 5 m/S 758 mmHg 57%
    15:00 +21°C° 0 mm 6 m/S 758 mmHg 62%
    16:00 +21°C° 0 mm 6 m/S 758 mmHg 67%
    17:00 +21°C° 0 mm 7 m/S 758 mmHg 72%
    18:00 +21°C° 0.1 mm 7 m/S 758 mmHg 71%
    19:00 +21°C° 0.1 mm 7 m/S 758 mmHg 70%
    20:00 +20°C° 0.1 mm 7 m/S 758 mmHg 69%
    21:00 +21°C° 0.3 mm 9 m/S 758 mmHg 69%
    22:00 +21°C° 0.3 mm 10 m/S 757 mmHg 69%
    23:00 +21°C° 0.3 mm 11 m/S 757 mmHg 70%

    Morgen, 19 April, Freitag

    Zeit Temperatur Niederschläge Wind Luftdruck Luftfeuchtigkeit
    00:00 +19°C° 1 mm 12 m/S 757 mmHg 72%
    01:00 +18°C° 1 mm 14 m/S 757 mmHg 75%
    02:00 +17°C° 1 mm 15 m/S 757 mmHg 77%
    03:00 +15°C° 0.4 mm 14 m/S 758 mmHg 72%
    04:00 +15°C° 0.4 mm 14 m/S 758 mmHg 66%
    05:00 +15°C° 0.4 mm 13 m/S 759 mmHg 61%
    06:00 +14°C° 0.5 mm 13 m/S 760 mmHg 62%
    07:00 +14°C° 0.5 mm 13 m/S 760 mmHg 63%
    08:00 +13°C° 0.5 mm 14 m/S 761 mmHg 64%
    09:00 +13°C° 0.4 mm 13 m/S 762 mmHg 62%
    10:00 +14°C° 0.4 mm 13 m/S 762 mmHg 59%
    11:00 +14°C° 0.4 mm 12 m/S 763 mmHg 57%
    12:00 +14°C° 0.3 mm 12 m/S 763 mmHg 56%
    13:00 +14°C° 0.3 mm 12 m/S 763 mmHg 55%
    14:00 +14°C° 0.3 mm 11 m/S 763 mmHg 54%
    15:00 +14°C° 0.3 mm 11 m/S 763 mmHg 56%
    16:00 +14°C° 0.3 mm 11 m/S 763 mmHg 57%
    17:00 +14°C° 0.3 mm 11 m/S 764 mmHg 58%
    18:00 +13°C° 0.5 mm 11 m/S 764 mmHg 60%
    19:00 +13°C° 0.5 mm 11 m/S 765 mmHg 62%
    20:00 +13°C° 0.5 mm 11 m/S 765 mmHg 63%
    21:00 +13°C° 0.3 mm 11 m/S 766 mmHg 64%
    22:00 +13°C° 0.3 mm 11 m/S 766 mmHg 64%
    23:00 +13°C° 0.3 mm 11 m/S 766 mmHg 64%

    übermorgen, 20 April, Samstag

    Zeit Temperatur Niederschläge Wind Luftdruck Luftfeuchtigkeit
    00:00 +13°C° 0.2 mm 10 m/S 767 mmHg 64%
    01:00 +13°C° 0.2 mm 10 m/S 767 mmHg 64%
    02:00 +12°C° 0.2 mm 9 m/S 767 mmHg 65%
    03:00 +12°C° 0.2 mm 8 m/S 767 mmHg 64%
    04:00 +12°C° 0.2 mm 8 m/S 767 mmHg 63%
    05:00 +11°C° 0.2 mm 7 m/S 768 mmHg 62%
    06:00 +11°C° 0 mm 7 m/S 768 mmHg 61%
    07:00 +11°C° 0 mm 7 m/S 769 mmHg 59%
    08:00 +11°C° 0 mm 6 m/S 769 mmHg 58%
    09:00 +13°C° 0 mm 6 m/S 770 mmHg 54%
    10:00 +14°C° 0 mm 5 m/S 770 mmHg 50%
    11:00 +15°C° 0 mm 5 m/S 770 mmHg 47%
    12:00 +15°C° 0 mm 4 m/S 769 mmHg 46%
    13:00 +17°C° 0 mm 4 m/S 769 mmHg 45%
    14:00 +17°C° 0 mm 4 m/S 768 mmHg 44%
    15:00 +16°C° 0 mm 5 m/S 768 mmHg 47%
    16:00 +16°C° 0 mm 6 m/S 768 mmHg 50%
    17:00 +16°C° 0 mm 6 m/S 769 mmHg 53%
    18:00 +16°C° 0 mm 6 m/S 769 mmHg 55%
    19:00 +15°C° 0 mm 6 m/S 769 mmHg 58%
    20:00 +15°C° 0 mm 6 m/S 770 mmHg 60%
    21:00 +15°C° 0 mm 6 m/S 770 mmHg 61%
    22:00 +15°C° 0 mm 6 m/S 770 mmHg 61%
    23:00 +14°C° 0 mm 6 m/S 771 mmHg 61%

    21 April, Sonntag

    Zeit Temperatur Niederschläge Wind Luftdruck Luftfeuchtigkeit
    00:00 +14°C° 0 mm 5 m/S 770 mmHg 60%
    01:00 +14°C° 0 mm 5 m/S 770 mmHg 60%
    02:00 +13°C° 0 mm 5 m/S 770 mmHg 59%
    03:00 +13°C° 0 mm 5 m/S 770 mmHg 60%
    04:00 +13°C° 0 mm 5 m/S 769 mmHg 60%
    05:00 +13°C° 0 mm 4 m/S 769 mmHg 61%
    06:00 +13°C° 0 mm 4 m/S 770 mmHg 60%
    07:00 +13°C° 0 mm 5 m/S 770 mmHg 59%
    08:00 +13°C° 0 mm 5 m/S 770 mmHg 58%
    09:00 +15°C° 0 mm 4 m/S 770 mmHg 52%
    10:00 +17°C° 0 mm 4 m/S 770 mmHg 46%
    11:00 +18°C° 0 mm 4 m/S 770 mmHg 39%
    12:00 +19°C° 0 mm 3 m/S 769 mmHg 36%
    13:00 +20°C° 0 mm 2 m/S 768 mmHg 32%
    14:00 +22°C° 0 mm 1 m/S 768 mmHg 29%
    15:00 +21°C° 0 mm 2 m/S 768 mmHg 32%
    16:00 +21°C° 0 mm 3 m/S 767 mmHg 35%
    17:00 +21°C° 0 mm 4 m/S 767 mmHg 37%
    18:00 +20°C° 0 mm 4 m/S 767 mmHg 42%
    19:00 +19°C° 0 mm 5 m/S 768 mmHg 47%
    20:00 +19°C° 0 mm 5 m/S 768 mmHg 52%
    21:00 +17°C° 0 mm 5 m/S 768 mmHg 48%
    22:00 +17°C° 0 mm 5 m/S 768 mmHg 45%
    23:00 +18°C° 0 mm 4 m/S 768 mmHg 41%

    22 April, Montag

    Zeit Temperatur Niederschläge Wind Luftdruck Luftfeuchtigkeit
    00:00 +17°C° 0 mm 5 m/S 767 mmHg 41%
    01:00 +17°C° 0 mm 5 m/S 767 mmHg 41%
    02:00 +17°C° 0 mm 6 m/S 766 mmHg 42%
    03:00 +17°C° 0 mm 6 m/S 766 mmHg 43%
    04:00 +17°C° 0 mm 6 m/S 766 mmHg 44%
    05:00 +17°C° 0 mm 7 m/S 766 mmHg 46%
    06:00 +17°C° 0 mm 7 m/S 766 mmHg 45%
    07:00 +17°C° 0 mm 6 m/S 766 mmHg 45%
    08:00 +17°C° 0 mm 6 m/S 767 mmHg 45%
    09:00 +20°C° 0 mm 6 m/S 766 mmHg 42%
    10:00 +21°C° 0 mm 6 m/S 766 mmHg 39%
    11:00 +22°C° 0 mm 5 m/S 766 mmHg 35%
    12:00 +23°C° 0 mm 5 m/S 765 mmHg 36%
    13:00 +23°C° 0 mm 4 m/S 765 mmHg 36%
    14:00 +25°C° 0 mm 4 m/S 764 mmHg 36%
    15:00 +23°C° 0 mm 4 m/S 764 mmHg 40%
    16:00 +23°C° 0 mm 4 m/S 765 mmHg 44%
    17:00 +22°C° 0 mm 4 m/S 765 mmHg 48%
    18:00 +22°C° 0 mm 5 m/S 765 mmHg 53%
    19:00 +21°C° 0 mm 5 m/S 766 mmHg 57%
    20:00 +21°C° 0 mm 5 m/S 767 mmHg 61%
    21:00 +20°C° 0 mm 5 m/S 767 mmHg 65%
    22:00 +20°C° 0 mm 6 m/S 767 mmHg 68%
    23:00 +19°C° 0 mm 6 m/S 767 mmHg 72%

    23 April, Dienstag

    Zeit Temperatur Niederschläge Wind Luftdruck Luftfeuchtigkeit
    00:00 +19°C° 0 mm 6 m/S 767 mmHg 72%
    01:00 +19°C° 0 mm 5 m/S 767 mmHg 73%
    02:00 +19°C° 0 mm 5 m/S 767 mmHg 73%
    03:00 +17°C° 0 mm 5 m/S 767 mmHg 75%
    04:00 +17°C° 0 mm 5 m/S 768 mmHg 76%
    05:00 +17°C° 0 mm 5 m/S 768 mmHg 77%
    06:00 +17°C° 0 mm 5 m/S 768 mmHg 77%
    07:00 +17°C° 0 mm 5 m/S 769 mmHg 76%
    08:00 +17°C° 0 mm 6 m/S 769 mmHg 76%
    09:00 +19°C° 0 mm 5 m/S 769 mmHg 71%
    10:00 +20°C° 0 mm 5 m/S 769 mmHg 65%
    11:00 +22°C° 0 mm 4 m/S 769 mmHg 59%
    12:00 +22°C° 0 mm 5 m/S 769 mmHg 58%
    13:00 +23°C° 0 mm 6 m/S 768 mmHg 56%
    14:00 +24°C° 0 mm 7 m/S 768 mmHg 54%
    15:00 +23°C° 0 mm 7 m/S 768 mmHg 56%
    16:00 +23°C° 0 mm 8 m/S 768 mmHg 58%
    17:00 +22°C° 0 mm 9 m/S 768 mmHg 60%
    18:00 +22°C° 0 mm 9 m/S 769 mmHg 60%
    19:00 +21°C° 0 mm 9 m/S 769 mmHg 60%
    20:00 +21°C° 0 mm 8 m/S 770 mmHg 60%
    21:00 +20°C° 0 mm 8 m/S 770 mmHg 61%
    22:00 +20°C° 0 mm 7 m/S 770 mmHg 62%
    23:00 +18°C° 0 mm 7 m/S 770 mmHg 63%
    Mehr zeigen